THOR ABLESTAR DEB, 324

Orbit data source: Space-Track

THOR ABLESTAR DEB, 324 is space debris in LEO originally from a launch on Thu, 29 Jun 1961 UTC launched from the Air Force Eastern Test Range (AFETR). Debris objects in space refer to the collection of defunct objects orbiting the Earth. Examples of debris include non-operational satellites, rocket bodies, and fragments generated from explosions, collisions, or faulty payload assembly.

Loading next visibility...
Identifier
324, 1961-015DA
Orbit
LEO
Country
Flag of USUS
Related business
Manufacturer
Unknown
Mission
Spacecraft
Bus & Motor
Unknown
Mass
Unknown
Launch date (UTC)
1961-06-29 (65 years ago)
Launch vehicle
Unknown
Launch site
Air Force Eastern Test Range (AFETR)
Object type
Payload
Rocket body
Debris
Shape & HBR
Unknown shape, 0.1 m
Radar Cross Section
Small (<0.1 m²)

Expand to show TLE details & history
Last TLE update: 16 hours ago

TLE from 16 hours ago
0 THOR ABLESTAR DEB
1   324U 61015DA  26037.29023576  .00000950  00000-0  54019-3 0  9990
2   324  66.8688   1.9401 0060433 127.6955 232.9638 14.13246915304577
Epoch: 2026-02-06T06:57Z
TLE epoch observation values (Epoch: 2026-02-06T06:57:56.369Z)
Latitude
0.00003°
Longitude
121.02501°
Altitude
876.86 km
Speed
7.401 km/s
True Right ascension
00h 07m 45s
True Declination
0° 00' 00"
Sunlit
Object was in daylight at epoch
Visualization orbit readout
Latitude
Unknown
Longitude
Unknown
Altitude
Unknown
Speed
Unknown
Apparent Right ascension
Unknown
Apparent Declination
Unknown
Sunlit
N/A
Visualization observer readout
Local Sidereal Time
01:29:55
Azimuth
Unknown
Elevation
Unknown
Doppler factor
Unknown
Orbital elements
Apogee altitude
890.312 km
Perigee altitude
802.989 km
Semi-major axis
7,224.787 km
Eccentricity
0.00604
Inclination
66.8688°
RAAN
1.9401°
Arg. of periapsis
127.6955°
True anomaly
232.41351°
Mean anomaly
232.9638°
Eccentric anomaly
232.68841°
Mean motion
3.53432 °/min
Orbital period
101.86 mins
BSTAR
0.00054019
Loading maneuver chart data...
Computing Atmospheric mass density...

Documentation

Showing up to 5 results
|